Regional Weather Roundup
Issued by NWS Mobile, AL

Home | Current Version | Previous Version | Text Only | Print | Product List | Glossary On
Versions: 1 2 3 4 5 6 7 8 9 10 11 12 13 14 15 16 17 18 19 20 21 22 23 24 25 26 27 28 29 30 31 32 33 34 35 36 37 38 39 40 41 42 43 44 45 46 47 48 49 50
000
ASUS44 KMOB 220610
RWRMOB
REGIONAL WEATHER ROUNDUP
NATIONAL WEATHER SERVICE MOBILE AL
100 AM CDT FRI AUG 22 2014

NOTE: "FAIR" INDICATES FEW OR NO CLOUDS BELOW 12,000 FEET WITH NO
      SIGNIFICANT WEATHER AND/OR OBSTRUCTIONS TO VISIBILITY.

  * THESE STATIONS ARE PART OF THE UNIVERSITY OF SOUTH ALABAMA
    MESONET AND ARE NOT UNDER NWS OR FAA QUALITY CONTROL.

ALZ061>064-220700-
COASTAL ALABAMA

CITY           SKY/WX    TMP DP  RH WIND       PRES   REMARKS
MOBILE REG APT FAIR      77  76  96 CALM      30.09F
6HR MIN TEMP:  76; 6HR MAX TEMP:  85;

BROOKLEY FIELD FAIR      81  77  88 SW3       30.09F
6HR MIN TEMP:  80; 6HR MAX TEMP:  85;

USA CAMPUS*      N/A     79  75  89 CALM      30.08F
DOG RIVER*       N/A     79  77  94 W2        30.08F


CITY           SKY/WX    TMP DP  RH WIND       PRES   REMARKS
MOUNT VERNON*  NOT AVBL
SARALAND*      NOT AVBL
BAY MINETTE*   NOT AVBL
LOXLEY*          N/A    N/A N/A N/A CALM      30.09F
ROBERTSDALE*     N/A    N/A N/A N/A CALM      30.09F
FAIRHOPE*        N/A     77  75  94 CALM      30.08F
ELBERTA*         N/A     77  64  65 CALM      30.08F
FOLEY*         NOT AVBL
GRAND BAY*       N/A     77  75  94 CALM      30.07F
DAUPHIN ISLND* NOT AVBL
BON SCOUR NWR* NOT AVBL
GULF SHORES    FAIR      75  74  96 CALM      30.08F

$$

ALZ051>060-220700-
INTERIOR SOUTHWEST AND SOUTH CENTRAL ALABAMA

CITY           SKY/WX    TMP DP  RH WIND       PRES   REMARKS
GREENVILLE     FAIR      77  75  93 CALM      30.08F
6HR MIN TEMP:  77; 6HR MAX TEMP:  89;

EVERGREEN      FAIR      77  75  93 CALM      30.09F
6HR MIN TEMP:  77; 6HR MAX TEMP:  87;

CASTLEBERRY*   NOT AVBL
ATMORE*          N/A     77  77 100 SW2       30.10F
DIXIE*         NOT AVBL
ANDALUSIA/OPP  FAIR      81  75  82 CALM      30.08F
6HR MIN TEMP:  80; 6HR MAX TEMP:  91;

ANDALUSIA*     NOT AVBL
FLORALA APT    FAIR      79  75  87 CALM      30.10F
6HR MIN TEMP:  79; 6HR MAX TEMP:  88;

FLORALA*         N/A     75  73  94 CALM      30.06F

$$

FLZ001>006-220700-
WESTERN FLORIDA PANHANDLE

CITY           SKY/WX    TMP DP  RH WIND       PRES   REMARKS
PENSACOLA      FAIR      80  73  79 W6        30.08F
6HR MIN TEMP:  80; 6HR MAX TEMP:  86;

NAS PENSACOLA  FAIR      76  74  93 CALM      30.08F
6HR MIN TEMP:  76; 6HR MAX TEMP:  85;

MILTON         FAIR      79  73  82 SW6       30.09F
6HR MIN TEMP:  77; 6HR MAX TEMP:  88;

WHTNG S FIELD  FAIR      80  74  81 CALM      30.09F
6HR MIN TEMP:  78; 6HR MAX TEMP:  88;



CITY           SKY/WX    TMP DP  RH WIND       PRES   REMARKS
WALNUT HILL*   NOT AVBL
JAY*           NOT AVBL
DUKE FIELD     FAIR      80  78  92 W2        30.08F
CRESTVIEW      FAIR      77  75  93 CALM      30.10F
6HR MIN TEMP:  77; 6HR MAX TEMP:  86;

VALPARAISO     NOT AVBL
DESTIN         FAIR      85  76  74 CALM      30.08F
6HR MIN TEMP:  85; 6HR MAX TEMP:  88;


$$

MSZ076-079-220700-
INTERIOR SOUTHEAST MISSISSIPPI

CITY           SKY/WX    TMP DP  RH WIND       PRES   REMARKS
LEAKESVILLE*     N/A     75  70  83 CALM        N/A
AGRICOLA*      NOT AVBL

$$

MARINE OBSERVATIONS

STATION/POSITION TIME  TEMP    WIND        PRES    WAVE
                       AIR SEA DIR/SP/G            HT/PER
                 (UTC) (F)     (DEG/KT/KT) (MB)    (FT/S)
PASCAGOULA       0600   86     230/  6/  9 1018.3F
PETIT BOIS ISLND 0600   86     230/  8/  9 1018.9F
GRAND BAY        0400   85     240/  5     1020.0F
KATRINA CUT      0500   86     260/  8     1019.6F
CEDAR POINT      0500   86     250/  8     1019.6R
E DAUPHIN ISLAND 0459   85     240/  5/  7 1019.3F
MIDDLE BAY LIGHT 0500   85     230/  9     1018.0F
USCG MOBILE BAY  0600   82 87  270/  4/  5 1017.5F
STATE DOCKS      0600   83 88              1018.3F
MEAHER PARK      0500   85     240/  5     1018.3F
WEEKS BAY        0400   77                   N/A
FORT MORGAN      0600   85     250/  8/  9 1018.3F
12 S ORANGE BCH  0600   86 86  250/  8/ 10 1018.8F   1/ 5
PENSACOLA BAY    0600   84 88  260/  3/  5 1018.9F
64 S DAUPHIN ISL 0547   85 88  240/  4/  6 1019.3F
67 S FORT MORGAN 0400   85                 1019.6F

$$

SELECTED LOCATIONS ACROSS THE REGION

CITY           SKY/WX    TMP DP  RH WIND       PRES   REMARKS
NEW ORLEANS    FAIR      78  74  87 SW5       30.08F
GULFPORT       FAIR      80  76  87 CALM      30.07F
PASCAGOULA AP  FAIR      75  75 100 CALM      30.08F
PASCAGOULA*      N/A     81  77  89 CALM      30.07F
HATTIESBURG    HAZE      78  73  84 CALM      30.09F VSB 1
LAUREL         FAIR      75  70  83 CALM      30.11S
MERIDIAN       FAIR      74  71  91 CALM      30.09S
JACKSON        FAIR      75  73  93 SW5       30.09R
MONTGOMERY     FAIR      80  76  87 CALM      30.07F
TROY           FAIR      75  73  93 SE3       30.09F
KINSTON*       NOT AVBL
GENEVA*          N/A     79  73  83 W3        30.10F
ASHFORD*       NOT AVBL
DOTHAN         FAIR      76  72  87 CALM      30.12F
PANAMA CITY    FAIR      78  75  90 CALM      30.08F

$$




USA.gov is the U.S. government's official web portal to all federal, state and local government web resources and services.